When you browse on this site, cookies collect data to enhance your experience and personalize the content and advertising you see.
Visit our Privacy Policy to learn more. By continuing to use the site, you agree to this use of cookies and data.
  • în România
  • Lista ţărilor
  • Pe 7 zile
  • Temperatura apei
  • Hartă satelitară
  • Meteo pe hartă
  • Widget-uri
  • user-avatar
    Intrare

    Meteo pe oră la La Rioja

    Astăzi, 16 Ianuarie, Miercuri

    Timp Temperatura Precipitaţii Vânt Presiune Umiditate
    00:00 +27°C° 0 mm 1 m/s 714 mmHg 55%
    01:00 +26°C° 0 mm 1 m/s 714 mmHg 56%
    02:00 +26°C° 0 mm 1 m/s 713 mmHg 58%
    03:00 +26°C° 0 mm 1 m/s 713 mmHg 60%
    04:00 +25°C° 0 mm 1 m/s 713 mmHg 62%
    05:00 +23°C° 0 mm 0 m/s 712 mmHg 63%
    06:00 +26°C° 0 mm 1 m/s 712 mmHg 59%
    07:00 +28°C° 0 mm 1 m/s 713 mmHg 55%
    08:00 +29°C° 0 mm 2 m/s 713 mmHg 50%
    09:00 +30°C° 0 mm 2 m/s 712 mmHg 47%
    10:00 +32°C° 0 mm 2 m/s 712 mmHg 44%
    11:00 +34°C° 0 mm 3 m/s 712 mmHg 41%
    12:00 +35°C° 0 mm 3 m/s 711 mmHg 38%
    13:00 +36°C° 0 mm 3 m/s 711 mmHg 34%
    14:00 +37°C° 0 mm 4 m/s 710 mmHg 31%
    15:00 +38°C° 0 mm 4 m/s 710 mmHg 32%
    16:00 +38°C° 0 mm 4 m/s 709 mmHg 32%
    17:00 +39°C° 0 mm 5 m/s 709 mmHg 32%
    18:00 +37°C° 0 mm 5 m/s 709 mmHg 38%
    19:00 +35°C° 0 mm 4 m/s 709 mmHg 44%
    20:00 +34°C° 0 mm 4 m/s 710 mmHg 49%
    21:00 +33°C° 0.5 mm 3 m/s 711 mmHg 55%
    22:00 +31°C° 0.5 mm 3 m/s 711 mmHg 61%
    23:00 +30°C° 0.5 mm 2 m/s 712 mmHg 66%

    Mâine, 17 Ianuarie, Joi

    Timp Temperatura Precipitaţii Vânt Presiune Umiditate
    00:00 +29°C° 0.1 mm 2 m/s 712 mmHg 69%
    01:00 +29°C° 0.1 mm 2 m/s 712 mmHg 72%
    02:00 +28°C° 0.1 mm 1 m/s 712 mmHg 75%
    03:00 +28°C° 1.1 mm 3 m/s 713 mmHg 77%
    04:00 +27°C° 1.1 mm 4 m/s 713 mmHg 79%
    05:00 +26°C° 1.1 mm 6 m/s 714 mmHg 81%
    06:00 +26°C° 0.5 mm 6 m/s 715 mmHg 75%
    07:00 +26°C° 0.5 mm 7 m/s 715 mmHg 68%
    08:00 +24°C° 0.5 mm 7 m/s 716 mmHg 62%
    09:00 +26°C° 0 mm 7 m/s 717 mmHg 57%
    10:00 +27°C° 0 mm 7 m/s 717 mmHg 51%
    11:00 +28°C° 0 mm 7 m/s 717 mmHg 46%
    12:00 +29°C° 0 mm 7 m/s 717 mmHg 43%
    13:00 +30°C° 0 mm 7 m/s 717 mmHg 41%
    14:00 +30°C° 0 mm 7 m/s 717 mmHg 38%
    15:00 +29°C° 0 mm 7 m/s 717 mmHg 42%
    16:00 +27°C° 0 mm 8 m/s 718 mmHg 45%
    17:00 +26°C° 0 mm 8 m/s 718 mmHg 48%
    18:00 +23°C° 0 mm 8 m/s 719 mmHg 50%
    19:00 +22°C° 0 mm 7 m/s 719 mmHg 53%
    20:00 +21°C° 0 mm 7 m/s 720 mmHg 55%
    21:00 +20°C° 0 mm 6 m/s 720 mmHg 57%
    22:00 +19°C° 0 mm 5 m/s 721 mmHg 60%
    23:00 +18°C° 0 mm 4 m/s 721 mmHg 63%

    Poimâine, 18 Ianuarie, Vineri

    Timp Temperatura Precipitaţii Vânt Presiune Umiditate
    00:00 +18°C° 0 mm 3 m/s 721 mmHg 64%
    01:00 +18°C° 0 mm 2 m/s 720 mmHg 65%
    02:00 +18°C° 0 mm 2 m/s 720 mmHg 67%
    03:00 +17°C° 0 mm 2 m/s 719 mmHg 68%
    04:00 +18°C° 0 mm 1 m/s 719 mmHg 69%
    05:00 +18°C° 0 mm 1 m/s 719 mmHg 71%
    06:00 +19°C° 0 mm 1 m/s 719 mmHg 67%
    07:00 +19°C° 0 mm 1 m/s 719 mmHg 63%
    08:00 +20°C° 0 mm 1 m/s 720 mmHg 60%
    09:00 +20°C° 0 mm 2 m/s 720 mmHg 54%
    10:00 +23°C° 0 mm 2 m/s 719 mmHg 49%
    11:00 +25°C° 0 mm 2 m/s 719 mmHg 43%
    12:00 +26°C° 0 mm 3 m/s 718 mmHg 41%
    13:00 +27°C° 0 mm 3 m/s 717 mmHg 38%
    14:00 +28°C° 0 mm 3 m/s 717 mmHg 35%
    15:00 +28°C° 0 mm 3 m/s 716 mmHg 34%
    16:00 +29°C° 0 mm 3 m/s 715 mmHg 34%
    17:00 +29°C° 0 mm 3 m/s 715 mmHg 33%
    18:00 +28°C° 0 mm 3 m/s 715 mmHg 35%
    19:00 +27°C° 0 mm 2 m/s 715 mmHg 37%
    20:00 +26°C° 0 mm 2 m/s 716 mmHg 39%
    21:00 +25°C° 0 mm 2 m/s 716 mmHg 42%
    22:00 +25°C° 0 mm 1 m/s 717 mmHg 44%
    23:00 +24°C° 0 mm 1 m/s 718 mmHg 47%

    19 Ianuarie, Sâmbătă

    Timp Temperatura Precipitaţii Vânt Presiune Umiditate
    00:00 +24°C° 0 mm 1 m/s 717 mmHg 52%
    01:00 +23°C° 0 mm 2 m/s 717 mmHg 57%
    02:00 +21°C° 0 mm 2 m/s 717 mmHg 62%
    03:00 +21°C° 0 mm 2 m/s 717 mmHg 68%
    04:00 +21°C° 0 mm 1 m/s 717 mmHg 73%
    05:00 +21°C° 0 mm 1 m/s 716 mmHg 79%
    06:00 +21°C° 0 mm 1 m/s 717 mmHg 76%
    07:00 +22°C° 0 mm 1 m/s 717 mmHg 74%
    08:00 +23°C° 0 mm 1 m/s 718 mmHg 72%
    09:00 +24°C° 0 mm 2 m/s 717 mmHg 66%
    10:00 +26°C° 0 mm 2 m/s 717 mmHg 60%
    11:00 +28°C° 0 mm 3 m/s 717 mmHg 55%
    12:00 +29°C° 0 mm 3 m/s 716 mmHg 51%
    13:00 +30°C° 0 mm 3 m/s 715 mmHg 47%
    14:00 +32°C° 0 mm 4 m/s 714 mmHg 43%
    15:00 +33°C° 0 mm 4 m/s 714 mmHg 42%
    16:00 +33°C° 0 mm 4 m/s 713 mmHg 41%
    17:00 +33°C° 0 mm 4 m/s 713 mmHg 40%
    18:00 +32°C° 0 mm 4 m/s 713 mmHg 44%
    19:00 +30°C° 0 mm 4 m/s 714 mmHg 48%
    20:00 +29°C° 0 mm 4 m/s 714 mmHg 53%
    21:00 +28°C° 0 mm 3 m/s 715 mmHg 57%
    22:00 +27°C° 0 mm 3 m/s 715 mmHg 61%
    23:00 +26°C° 0 mm 3 m/s 716 mmHg 65%

    20 Ianuarie, Duminică

    Timp Temperatura Precipitaţii Vânt Presiune Umiditate
    00:00 +26°C° 0 mm 2 m/s 715 mmHg 68%
    01:00 +25°C° 0 mm 2 m/s 715 mmHg 71%
    02:00 +25°C° 0 mm 1 m/s 715 mmHg 74%
    03:00 +24°C° 0 mm 1 m/s 714 mmHg 75%
    04:00 +24°C° 0 mm 1 m/s 714 mmHg 77%
    05:00 +24°C° 0 mm 1 m/s 714 mmHg 78%
    06:00 +24°C° 0 mm 1 m/s 714 mmHg 76%
    07:00 +25°C° 0 mm 2 m/s 715 mmHg 74%
    08:00 +25°C° 0 mm 2 m/s 715 mmHg 73%
    09:00 +27°C° 0 mm 2 m/s 715 mmHg 68%
    10:00 +28°C° 0 mm 2 m/s 714 mmHg 63%
    11:00 +29°C° 0 mm 2 m/s 714 mmHg 59%
    12:00 +31°C° 0 mm 3 m/s 713 mmHg 54%
    13:00 +33°C° 0 mm 3 m/s 712 mmHg 50%
    14:00 +34°C° 0 mm 3 m/s 711 mmHg 46%
    15:00 +35°C° 0 mm 4 m/s 711 mmHg 45%
    16:00 +35°C° 0 mm 4 m/s 710 mmHg 44%
    17:00 +35°C° 0 mm 4 m/s 709 mmHg 42%
    18:00 +34°C° 0 mm 4 m/s 710 mmHg 46%
    19:00 +33°C° 0 mm 4 m/s 710 mmHg 49%
    20:00 +32°C° 0 mm 4 m/s 711 mmHg 52%
    21:00 +30°C° 0 mm 3 m/s 711 mmHg 57%
    22:00 +29°C° 0 mm 3 m/s 712 mmHg 61%
    23:00 +28°C° 0 mm 3 m/s 712 mmHg 65%

    21 Ianuarie, Luni

    Timp Temperatura Precipitaţii Vânt Presiune Umiditate
    00:00 +28°C° 0 mm 2 m/s 712 mmHg 68%
    01:00 +27°C° 0 mm 2 m/s 711 mmHg 71%
    02:00 +26°C° 0 mm 1 m/s 711 mmHg 74%
    03:00 +26°C° 0 mm 1 m/s 711 mmHg 75%
    04:00 +26°C° 0 mm 1 m/s 710 mmHg 76%
    05:00 +26°C° 0 mm 1 m/s 710 mmHg 77%
    06:00 +26°C° 0 mm 1 m/s 711 mmHg 75%
    07:00 +26°C° 0 mm 2 m/s 711 mmHg 74%
    08:00 +27°C° 0 mm 2 m/s 711 mmHg 72%
    09:00 +28°C° 0 mm 2 m/s 711 mmHg 66%
    10:00 +30°C° 0 mm 2 m/s 711 mmHg 61%
    11:00 +31°C° 0 mm 2 m/s 711 mmHg 55%
    12:00 +33°C° 0 mm 3 m/s 711 mmHg 51%
    13:00 +35°C° 0 mm 3 m/s 710 mmHg 47%
    14:00 +36°C° 0 mm 3 m/s 710 mmHg 43%
    15:00 +36°C° 0 mm 3 m/s 710 mmHg 42%
    16:00 +37°C° 0 mm 3 m/s 709 mmHg 41%
    17:00 +37°C° 0 mm 3 m/s 709 mmHg 40%
    18:00 +36°C° 0 mm 3 m/s 710 mmHg 42%
    19:00 +35°C° 0 mm 3 m/s 710 mmHg 45%
    20:00 +34°C° 0 mm 2 m/s 711 mmHg 47%
    21:00 +32°C° 0.1 mm 2 m/s 712 mmHg 51%
    22:00 +31°C° 0.1 mm 1 m/s 712 mmHg 55%
    23:00 +31°C° 0.1 mm 1 m/s 713 mmHg 59%
    Arată mai mult